Regional Weather Roundup
Issued by NWS

Home | Current Version | Previous Version | Text Only | Print | Product List | Glossary On
Versions: 1 2 3 4 5 6 7 8 9 10 11 12 13 14 15 16 17 18 19 20 21 22 23 24 25 26 27 28 29 30 31 32 33 34 35 36 37 38 39 40 41 42 43 44 45 46 47 48 49 50
000
ASCA44 KEWX 060920
RWRMX

LATIN AMERICA AND CARIBBEAN REGIONAL WEATHER ROUNDUP
NATIONAL WEATHER SERVICE AUSTIN/SAN ANTONIO TX
400 AM CDT MON JUL 06 2015

NOTE: "FAIR" INDICATED FEW OR NO CLOUDS BELOW 12,000 FEET WITH NO
SIGNIFICANT WEATHER AND/OR OBSTRUCTIONS TO VISIBILITY.

BAJA CALIFORNIA

CITY           SKY/WX    TMP DP  RH WIND       PRES   REMARKS
TIJUANA        CLOUDY    64  57  77 W8        30.03F

NORTHWESTERN MEXICO

CITY           SKY/WX    TMP DP  RH WIND       PRES   REMARKS

NORTHEASTERN MEXICO

CITY           SKY/WX    TMP DP  RH WIND       PRES   REMARKS
MONTERREY      MOCLDY    73  68  83 E6        29.97S

WESTERN MEXICO

CITY           SKY/WX    TMP DP  RH WIND       PRES   REMARKS
GUADALAJARA    PTCLDY    66  63  88 SE2       30.24F
MAZATLAN       PTCLDY    75  70  83 NE7       29.90F
P. VALLARTA    MOCLDY    81  77  89 NE2       29.91F
ZACATECAS        N/A    N/A N/A N/A MISG        N/A

CENTRAL MEXICO

CITY           SKY/WX    TMP DP  RH WIND       PRES   REMARKS
MEXICO CITY    PTCLDY    57  55  94 S3        30.39F
QUERETARO      MOCLDY    57  55  94 CALM      30.36F FOG
S. LUIS POTOSI MOCLDY    63  57  82 CALM      30.31F
TOLUCA         CLOUDY    50  48  93 CALM      30.46F

SOUTHERN MEXICO

CITY           SKY/WX    TMP DP  RH WIND       PRES   REMARKS
ACAPULCO       MOCLDY    82  79  89 NE7       29.89S HX  93
OAXACA         PTCLDY    61  54  77 N6        30.30F
VERACRUZ         N/A    N/A N/A N/A MISG        N/A

YUCATAN PENINSULA

CITY           SKY/WX    TMP DP  RH WIND       PRES   REMARKS
CANCUN         CLEAR     81  81 100 NE3       30.06F HX  91
COZUMEL        PTCLDY    77  77 100 CALM      30.05F
MERIDA         CLEAR     77  73  88 CALM      30.04F
TAPACHULA      MOCLDY    81  77  89 CALM      29.88F

CENTRAL AMERICA

CITY           SKY/WX    TMP DP  RH WIND       PRES   REMARKS
MANAGUA        MOSUNNY   79  72  78 E7        29.86F

CARIBBEAN

CITY           SKY/WX    TMP DP  RH WIND       PRES   REMARKS
ARUBA          PTCLDY    81  75  83 E18       29.92R
CURACAO        PTCLDY    79  75  89 E12       29.94S
KINGSTON       PTCLDY    82  70  65 N6        30.00S
SAN JUAN       PTCLDY    79  75  89 CALM      30.05S
SANTO DOMINGO  PTCLDY    75  73  94 N6        30.03S
ST. CROIX      CLEAR     79  72  78 NE8       30.04
ST. MAARTEN    PTCLDY    81  72  74 E15       30.03S
ST. THOMAS     CLOUDY    81  73  78 E8        30.04

$$




USA.gov is the U.S. government's official web portal to all federal, state and local government web resources and services.